History for Miami, FL

Sunday, February 24, 2013 — View Current Conditions

Jump to Data:

Date:
Airport Code:
Recently Viewed Airport Codes: KMIA
Daily Summary
  Actual Average Record
Temperature
Mean Temperature 80°F 71°F  
Max Temperature 86°F 79°F 89°F (2008)
Min Temperature 73°F 63°F 37°F (1989)
Degree Days
Heating Degree Days 0 1  
Month to date heating degree days 16 24  
Since 1 July heating degree days 36 114  
Cooling Degree Days 15 7  
Month to date cooling degree days 170 143  
Year to date cooling degree days 439 294  
Growing Degree Days 30 (Base 50)    
Moisture
Dew Point 70°F    
Average Humidity 76    
Maximum Humidity 100    
Minimum Humidity 51    
Precipitation
Precipitation 0.00 in 0.09 in 0.72 in (1942)
Month to date precipitation 1.74 1.92  
Year to date precipitation 2.28 3.54  
Snow
Snow 0.00 in in in ()
Month to date snowfall 0.0  
Since 1 July snowfall 0.0  
Snow Depth 0.00 in    
Sea Level Pressure
Sea Level Pressure 29.97 in    
Wind
Wind Speed 5 mph (South)    
Max Wind Speed 14 mph    
Max Gust Speed 22 mph    
Visibility 10 miles    
Events      
T = Trace of Precipitation, MM = Missing Value Source: NWS Daily Summary

Show full METARS

(help) - Comma Delimited File

Hourly Observations

Time(EST) Temperature Dew Point Humidity Sea Level Pressure Visibility Wind Direction Wind Speed Gust Speed Precipitation Events Conditions
12:40 AM 73.4°F 71.6°F 94% 29.99 in 10.0 miles Variable 3.5 mph - N/A   Mostly Cloudy
12:53 AM 74.7°F 73.2°F 95% 29.99 in 10.0 miles South 3.5 mph - N/A   Mostly Cloudy
1:53 AM 74.5°F 73.4°F 96% 29.98 in 10.0 miles South 4.6 mph - N/A   Mostly Cloudy
2:53 AM 74.7°F 73.4°F 96% 29.96 in 10.0 miles Variable 3.5 mph - N/A   Mostly Cloudy
3:15 AM 75.2°F 73.4°F 94% 29.96 in 10.0 miles Variable 4.6 mph - N/A   Mostly Cloudy
3:53 AM 73.6°F 73.2°F 99% 29.95 in 10.0 miles Calm Calm - N/A   Scattered Clouds
4:53 AM 73.2°F 72.7°F 98% 29.96 in 10.0 miles South 4.6 mph - N/A   Partly Cloudy
5:53 AM 73.4°F 73.0°F 99% 29.96 in 10.0 miles South 3.5 mph - N/A   Partly Cloudy
6:53 AM 73.4°F 73.0°F 99% 29.98 in 8.0 miles Calm Calm - N/A   Mostly Cloudy
7:53 AM 73.4°F 73.0°F 99% 29.99 in 10.0 miles South 4.6 mph - N/A   Scattered Clouds
8:24 AM 75.2°F 73.4°F 94% 29.99 in 10.0 miles SSW 4.6 mph - N/A   Scattered Clouds
8:53 AM 75.9°F 73.0°F 91% 30.00 in 10.0 miles South 6.9 mph - N/A   Scattered Clouds
9:53 AM 75.9°F 73.0°F 91% 30.01 in 10.0 miles SSW 4.6 mph - N/A   Scattered Clouds
10:53 AM 82.0°F 68.0°F 62% 30.01 in 10.0 miles Variable 3.5 mph - N/A   Mostly Cloudy
11:53 AM 84.9°F 66.0°F 53% 29.99 in 10.0 miles NW 3.5 mph - N/A   Scattered Clouds
12:53 PM 84.9°F 64.0°F 49% 29.96 in 10.0 miles Variable 6.9 mph - N/A   Mostly Cloudy
1:53 PM 82.0°F 70.0°F 67% 29.94 in 10.0 miles ESE 10.4 mph - N/A   Scattered Clouds
2:53 PM 84.0°F 70.0°F 63% 29.93 in 10.0 miles South 11.5 mph 18.4 mph N/A   Scattered Clouds
3:53 PM 82.9°F 66.9°F 58% 29.91 in 10.0 miles South 8.1 mph 18.4 mph N/A   Scattered Clouds
4:53 PM 81.0°F 66.9°F 62% 29.93 in 10.0 miles SSE 10.4 mph - N/A   Mostly Cloudy
5:53 PM 80.1°F 68.0°F 67% 29.93 in 10.0 miles Variable 6.9 mph - N/A   Scattered Clouds
6:53 PM 79.0°F 68.0°F 69% 29.94 in 10.0 miles South 9.2 mph - N/A   Scattered Clouds
7:53 PM 79.0°F 69.1°F 72% 29.95 in 10.0 miles South 4.6 mph - N/A   Mostly Cloudy
8:53 PM 78.1°F 70.0°F 76% 29.96 in 10.0 miles Calm Calm - N/A   Mostly Cloudy
9:53 PM 77.0°F 69.1°F 76% 29.96 in 10.0 miles South 3.5 mph - N/A   Scattered Clouds
10:53 PM 73.9°F 69.1°F 85% 29.96 in 10.0 miles Calm Calm - N/A   Mostly Cloudy
11:53 PM 73.0°F 69.1°F 87% 29.94 in 9.0 miles Calm Calm - N/A   Mostly Cloudy